User: anonymous   Login
Location: Unspecified
(0.0000°N, 0.0000°E)
Time: 18:47:53
(UTC+00:00)
Language:

AO-73 - Orbit

View from above orbital plane
View from above orbital plane
View from above satellite
View from above satellite

Ground track
Ground track

The orbit data is extracted from the following two-line orbital elements,

1 39444U 13066AE  19340.52899258  .00000225  00000-0  33958-4 0  9996
2 39444  97.5578 346.5214 0057874 185.5191 174.5393 14.82022141325235
Epoch (UTC): 06 December 2019 12:41:44
Eccentricity: 0.0057874
inclination: 97.5578°
perigee height: 582 km
apogee height: 663 km
right ascension of ascending node: 346.5214°
argument of perigee: 185.5191°
revolutions per day: 14.82022141
mean anomaly at epoch: 174.5393°
orbit number at epoch: 32523

The dashed part of the orbit path shows where the satellite is in the earth's shadow,  

DLR